When you browse on this site, cookies collect data to enhance your experience and personalize the content and advertising you see.
Visit our Privacy Policy to learn more. By continuing to use the site, you agree to this use of cookies and data.

Stündliche Wetter Vereskovo

Heute, 14 August, Freitag

Zeit Temperatur Niederschläge Wind Luftdruck Luftfeuchtigkeit
00:00 +12°C° 0 mm 1 m/S 749 mmHg 82%
01:00 +12°C° 0 mm 1 m/S 749 mmHg 83%
02:00 +11°C° 0 mm 1 m/S 749 mmHg 85%
03:00 +11°C° 0 mm 1 m/S 749 mmHg 86%
04:00 +11°C° 0 mm 1 m/S 749 mmHg 86%
05:00 +10°C° 0 mm 1 m/S 749 mmHg 87%
06:00 +12°C° 0 mm 1 m/S 749 mmHg 81%
07:00 +14°C° 0 mm 1 m/S 749 mmHg 75%
08:00 +16°C° 0 mm 1 m/S 750 mmHg 68%
09:00 +19°C° 0 mm 1 m/S 750 mmHg 64%
10:00 +20°C° 0 mm 1 m/S 750 mmHg 60%
11:00 +21°C° 0 mm 1 m/S 750 mmHg 56%
12:00 +22°C° 0 mm 1 m/S 750 mmHg 55%
13:00 +23°C° 0 mm 1 m/S 749 mmHg 54%
14:00 +23°C° 0 mm 1 m/S 749 mmHg 54%
15:00 +23°C° 0.1 mm 1 m/S 749 mmHg 56%
16:00 +23°C° 0.1 mm 1 m/S 749 mmHg 59%
17:00 +23°C° 0.1 mm 1 m/S 749 mmHg 61%
18:00 +21°C° 0.1 mm 1 m/S 749 mmHg 68%
19:00 +20°C° 0.1 mm 1 m/S 749 mmHg 74%
20:00 +17°C° 0.1 mm 2 m/S 749 mmHg 81%
21:00 +16°C° 0 mm 2 m/S 749 mmHg 82%
22:00 +16°C° 0 mm 2 m/S 749 mmHg 84%
23:00 +15°C° 0 mm 2 m/S 749 mmHg 85%

Morgen, 15 August, Samstag

Zeit Temperatur Niederschläge Wind Luftdruck Luftfeuchtigkeit
00:00 +15°C° 0 mm 2 m/S 749 mmHg 86%
01:00 +14°C° 0 mm 2 m/S 749 mmHg 88%
02:00 +14°C° 0 mm 2 m/S 749 mmHg 90%
03:00 +13°C° 0 mm 2 m/S 749 mmHg 90%
04:00 +13°C° 0 mm 2 m/S 749 mmHg 91%
05:00 +13°C° 0 mm 2 m/S 749 mmHg 92%
06:00 +14°C° 0 mm 2 m/S 749 mmHg 86%
07:00 +16°C° 0 mm 2 m/S 749 mmHg 80%
08:00 +17°C° 0 mm 2 m/S 749 mmHg 74%
09:00 +19°C° 0 mm 2 m/S 750 mmHg 68%
10:00 +21°C° 0 mm 2 m/S 750 mmHg 62%
11:00 +23°C° 0 mm 2 m/S 750 mmHg 55%
12:00 +24°C° 0 mm 2 m/S 750 mmHg 54%
13:00 +25°C° 0 mm 2 m/S 750 mmHg 53%
14:00 +25°C° 0 mm 2 m/S 749 mmHg 51%
15:00 +25°C° 0 mm 2 m/S 749 mmHg 53%
16:00 +25°C° 0 mm 2 m/S 749 mmHg 54%
17:00 +25°C° 0 mm 2 m/S 749 mmHg 55%
18:00 +23°C° 0 mm 1 m/S 749 mmHg 62%
19:00 +21°C° 0 mm 1 m/S 749 mmHg 68%
20:00 +19°C° 0 mm 1 m/S 749 mmHg 75%
21:00 +18°C° 0 mm 1 m/S 749 mmHg 77%
22:00 +18°C° 0 mm 1 m/S 749 mmHg 79%
23:00 +16°C° 0 mm 1 m/S 749 mmHg 81%

übermorgen, 16 August, Sonntag

Zeit Temperatur Niederschläge Wind Luftdruck Luftfeuchtigkeit
00:00 +16°C° 0 mm 1 m/S 749 mmHg 82%
01:00 +15°C° 0 mm 1 m/S 749 mmHg 83%
02:00 +15°C° 0 mm 1 m/S 749 mmHg 84%
03:00 +15°C° 0 mm 1 m/S 749 mmHg 86%
04:00 +14°C° 0 mm 1 m/S 749 mmHg 87%
05:00 +14°C° 0 mm 2 m/S 749 mmHg 88%
06:00 +16°C° 0 mm 2 m/S 749 mmHg 83%
07:00 +17°C° 0 mm 2 m/S 749 mmHg 78%
08:00 +19°C° 0 mm 2 m/S 749 mmHg 73%
09:00 +21°C° 0 mm 2 m/S 749 mmHg 68%
10:00 +23°C° 0 mm 2 m/S 750 mmHg 64%
11:00 +25°C° 0 mm 2 m/S 750 mmHg 60%
12:00 +26°C° 0 mm 2 m/S 749 mmHg 57%
13:00 +26°C° 0 mm 2 m/S 749 mmHg 55%
14:00 +27°C° 0 mm 2 m/S 749 mmHg 52%
15:00 +27°C° 0 mm 2 m/S 749 mmHg 54%
16:00 +27°C° 0 mm 2 m/S 749 mmHg 55%
17:00 +26°C° 0 mm 2 m/S 748 mmHg 56%
18:00 +25°C° 0 mm 1 m/S 748 mmHg 63%
19:00 +23°C° 0 mm 1 m/S 748 mmHg 70%
20:00 +21°C° 0 mm 1 m/S 748 mmHg 77%
21:00 +20°C° 0 mm 1 m/S 749 mmHg 79%
22:00 +19°C° 0 mm 1 m/S 749 mmHg 82%
23:00 +19°C° 0 mm 1 m/S 749 mmHg 84%

17 August, Montag

Zeit Temperatur Niederschläge Wind Luftdruck Luftfeuchtigkeit
00:00 +18°C° 0 mm 1 m/S 749 mmHg 84%
01:00 +18°C° 0 mm 1 m/S 749 mmHg 85%
02:00 +18°C° 0 mm 1 m/S 748 mmHg 85%
03:00 +16°C° 0 mm 1 m/S 748 mmHg 86%
04:00 +16°C° 0 mm 1 m/S 748 mmHg 87%
05:00 +15°C° 0 mm 1 m/S 748 mmHg 88%
06:00 +18°C° 0 mm 1 m/S 748 mmHg 82%
07:00 +20°C° 0 mm 1 m/S 748 mmHg 76%
08:00 +22°C° 0 mm 1 m/S 748 mmHg 70%
09:00 +23°C° 0 mm 1 m/S 748 mmHg 65%
10:00 +25°C° 0 mm 1 m/S 748 mmHg 60%
11:00 +26°C° 0 mm 1 m/S 748 mmHg 56%
12:00 +27°C° 0 mm 1 m/S 748 mmHg 53%
13:00 +27°C° 0 mm 1 m/S 747 mmHg 50%
14:00 +28°C° 0 mm 2 m/S 747 mmHg 47%
15:00 +28°C° 0 mm 2 m/S 746 mmHg 50%
16:00 +27°C° 0 mm 2 m/S 746 mmHg 52%
17:00 +27°C° 0 mm 2 m/S 746 mmHg 54%
18:00 +25°C° 0 mm 2 m/S 746 mmHg 60%
19:00 +23°C° 0 mm 1 m/S 745 mmHg 65%
20:00 +22°C° 0 mm 1 m/S 745 mmHg 70%
21:00 +21°C° 0 mm 1 m/S 745 mmHg 71%
22:00 +21°C° 0 mm 1 m/S 745 mmHg 72%
23:00 +20°C° 0 mm 1 m/S 745 mmHg 74%

18 August, Dienstag

Zeit Temperatur Niederschläge Wind Luftdruck Luftfeuchtigkeit
00:00 +20°C° 0.1 mm 1 m/S 745 mmHg 75%
01:00 +19°C° 0.1 mm 2 m/S 744 mmHg 77%
02:00 +18°C° 0.1 mm 2 m/S 744 mmHg 79%
03:00 +18°C° 0.2 mm 2 m/S 744 mmHg 82%
04:00 +18°C° 0.2 mm 2 m/S 744 mmHg 84%
05:00 +18°C° 0.2 mm 3 m/S 743 mmHg 87%
06:00 +18°C° 0 mm 3 m/S 743 mmHg 83%
07:00 +19°C° 0 mm 2 m/S 743 mmHg 80%
08:00 +20°C° 0 mm 2 m/S 743 mmHg 76%
09:00 +21°C° 0 mm 2 m/S 743 mmHg 71%
10:00 +23°C° 0 mm 2 m/S 743 mmHg 65%
11:00 +25°C° 0 mm 2 m/S 743 mmHg 60%
12:00 +26°C° 0 mm 2 m/S 743 mmHg 57%
13:00 +26°C° 0 mm 2 m/S 742 mmHg 54%
14:00 +27°C° 0 mm 2 m/S 742 mmHg 51%
15:00 +27°C° 0 mm 2 m/S 742 mmHg 52%
16:00 +27°C° 0 mm 2 m/S 742 mmHg 54%
17:00 +27°C° 0 mm 2 m/S 742 mmHg 55%
18:00 +25°C° 0 mm 2 m/S 741 mmHg 61%
19:00 +23°C° 0 mm 2 m/S 741 mmHg 68%
20:00 +20°C° 0 mm 2 m/S 741 mmHg 74%
21:00 +20°C° 0 mm 2 m/S 741 mmHg 76%
22:00 +19°C° 0 mm 2 m/S 741 mmHg 78%
23:00 +19°C° 0 mm 2 m/S 741 mmHg 81%

19 August, Mittwoch

Zeit Temperatur Niederschläge Wind Luftdruck Luftfeuchtigkeit
00:00 +18°C° 0.1 mm 2 m/S 741 mmHg 83%
01:00 +18°C° 0.1 mm 2 m/S 741 mmHg 85%
02:00 +18°C° 0.1 mm 2 m/S 741 mmHg 87%
03:00 +18°C° 0.7 mm 2 m/S 741 mmHg 89%
04:00 +18°C° 0.7 mm 2 m/S 741 mmHg 92%
05:00 +19°C° 0.7 mm 1 m/S 740 mmHg 94%
06:00 +19°C° 0.8 mm 1 m/S 740 mmHg 95%
07:00 +19°C° 0.8 mm 1 m/S 740 mmHg 95%
08:00 +19°C° 0.8 mm 1 m/S 741 mmHg 96%
09:00 +21°C° 0.3 mm 1 m/S 741 mmHg 92%
10:00 +21°C° 0.3 mm 2 m/S 741 mmHg 88%
11:00 +23°C° 0.3 mm 2 m/S 741 mmHg 83%
12:00 +23°C° 0.4 mm 2 m/S 741 mmHg 81%
13:00 +24°C° 0.4 mm 3 m/S 741 mmHg 79%
14:00 +24°C° 0.4 mm 3 m/S 741 mmHg 78%
15:00 +24°C° 0.1 mm 3 m/S 740 mmHg 77%
16:00 +24°C° 0.1 mm 3 m/S 740 mmHg 76%
17:00 +22°C° 0.1 mm 3 m/S 740 mmHg 76%
18:00 +21°C° 0 mm 3 m/S 740 mmHg 82%
19:00 +20°C° 0 mm 2 m/S 740 mmHg 88%
20:00 +18°C° 0 mm 2 m/S 741 mmHg 94%
21:00 +18°C° 0 mm 2 m/S 741 mmHg 95%
22:00 +17°C° 0 mm 2 m/S 741 mmHg 95%
23:00 +17°C° 0 mm 2 m/S 741 mmHg 96%
Mehr zeigen